[[{"header":{"parameterUnit":"m.s-1","parameterCategory":1,"la1":30.2991,"la2":30.254,"lo1":-89.0895,"lo2":-89.0444,"dy":0.0017,"dx":0.0017,"nx":28,"ny":28,"refTime":"2023-09-26T21:00:00:Z","depth":0,"parameterNumber":2,"parameterNumberName":"U-component_of_WINDS"},"data":[0,0,0,0,0,0,0,0,0,0,0,0,0,0,0,0,0,0,0,0,0,0,0,0,0,0,0,0,0,0,0,0,0,0,0,0,0,0,0,0,0,0,0,0,0,0,0,0,0,0,0,0,0,0,0,0,0,0,1.462,1.462,0,1.4643,1.4643,1.4643,1.4571,1.4569,1.4567,1.4565,1.4592,1.4594,1.4597,0,0,0,0,0,0,0,0,0,0,0,0,0,1.4518,1.452,1.462,1.462,1.4621,1.4643,1.4643,1.4643,1.4572,1.4569,1.4567,1.4564,1.4591,1.4594,1.4597,0,0,0,0,0,0,0,0,0,0,0,0,0,1.4554,1.4521,1.462,1.4588,1.4585,1.4643,1.4643,1.4643,1.4572,1.4569,1.4566,1.4563,1.459,1.4594,1.4598,1.4689,0,0,1.461,1.4612,0,0,0,0,0,0,0,0,1.4552,1.4557,1.4592,1.459,1.4587,1.4601,1.4617,1.4659,1.4573,1.4577,1.4565,1.4561,1.4598,1.4601,1.4612,1.469,1.4691,1.4611,1.4613,1.4615,1.4616,0,0,0,0,0,0,0,1.4549,1.4556,1.4629,1.4593,1.459,1.4573,1.4574,1.4624,1.4606,1.4577,1.4571,1.4575,1.4596,1.4609,1.4613,1.4692,1.4611,1.4614,1.4617,1.4618,1.4844,1.4847,0,0,0,0,0,0,1.4551,1.4554,1.4628,1.463,1.4561,1.4577,1.4579,1.46,1.4605,1.4602,1.4578,1.4572,1.4603,1.4608,1.4613,1.4719,1.4615,1.4619,1.4621,1.484,1.4845,1.4848,0,0,0,0,0,0,1.4549,1.4558,1.4628,1.4591,1.4598,1.4582,1.4607,1.4602,1.4615,1.4606,1.4602,1.4594,1.4601,1.4607,1.467,1.4719,1.4621,1.4624,1.4836,1.4842,1.4846,1.4931,0,0,0,0,0,0,1.4546,1.4558,1.4591,1.4592,1.46,1.4683,1.461,1.4605,1.4622,1.4614,1.462,1.4618,1.4599,1.4664,1.4674,1.4722,1.4628,1.4832,1.4839,1.4845,1.4924,1.4939,1.4951,0,0,0,0,0,1.4543,1.4616,1.4594,1.4603,1.4642,1.4686,1.4691,1.4666,1.4626,1.466,1.4654,1.4618,1.4712,1.4671,1.4682,1.4732,1.4828,1.4837,1.4844,1.4918,1.4936,1.4951,0,0,0,0,0,0,1.4623,1.4615,1.4591,1.4666,1.4677,1.4674,1.4716,1.4687,1.471,1.4702,1.4671,1.4673,1.4741,1.4743,1.4698,1.482,1.4763,1.4774,1.4816,1.4833,1.4846,1.4844,1.4631,0,0,0,0,0,1.4649,1.4684,1.4676,1.4744,1.475,1.4733,1.4751,1.4731,1.4741,1.4746,1.4745,1.4758,1.479,1.4812,1.4841,1.4925,1.4924,1.4964,1.4978,1.4989,1.4998,1.5041,1.5058,1.4874,1.4874,1.4874,0,0,1.4704,1.4704,1.4729,1.476,1.4766,1.4804,1.4737,1.478,1.4808,1.4753,1.4811,1.4811,1.4823,1.4896,1.4928,1.49,1.5049,1.4999,1.5008,1.5011,1.5051,1.5068,1.5084,1.488,1.4879,1.4878,0,0,1.4823,1.4827,1.4882,1.489,1.49,1.4887,1.4901,1.4902,1.4899,1.4957,1.4916,1.4949,1.5006,1.5015,1.5028,1.515,1.5117,1.516,1.5231,1.5273,1.5288,1.53,1.5342,1.5358,1.517,1.517,1.517,0,1.489,1.4944,1.4915,1.496,1.4975,1.4926,1.4982,1.4991,1.501,1.5022,1.499,1.5058,1.5063,1.5137,1.5166,1.5179,1.5192,1.5159,1.5288,1.53,1.5312,1.5351,1.5367,1.5175,1.5174,1.5174,1.5173,0,1.5025,1.5064,1.5107,1.5125,1.5145,1.5196,1.5175,1.5199,1.5177,1.5168,1.5227,1.5231,1.526,1.5276,1.5256,1.5347,1.5328,1.5293,1.5235,1.5335,1.5371,1.5386,1.5182,1.518,1.5179,1.5178,0,0,1.5194,1.5195,1.5212,1.5219,1.5226,1.5255,1.5304,1.533,1.535,1.5366,1.5405,1.5453,1.542,1.5434,1.5415,1.5452,1.5546,1.5411,1.5411,1.5434,1.5644,1.5669,1.5687,1.5525,1.5527,1.553,1.5642,0,1.531,1.5391,1.5366,1.5448,1.5482,1.5436,1.5478,1.5487,1.5481,1.5509,1.5502,1.5536,1.549,1.5498,1.5533,1.5527,1.5587,1.5519,1.556,1.5562,1.5556,1.5707,1.5734,1.584,1.5657,1.5659,1.5661,0,1.5455,1.5474,1.5559,1.5559,1.5572,1.561,1.5632,1.566,1.5669,1.5662,1.5677,1.565,1.5697,1.5641,1.5705,1.5659,1.5675,1.5675,1.5678,1.568,1.5616,1.5711,1.5874,1.5889,1.5683,1.5681,1.568,0,1.5567,1.5615,1.5671,1.5679,1.5681,1.5708,1.5711,1.5717,1.5734,1.5753,1.5763,1.5789,1.5803,1.5823,1.5803,1.5764,1.587,1.5812,1.5865,1.5865,1.5888,1.5887,1.6054,1.5902,1.5901,1.5901,1.5901,0,1.5697,1.5751,1.5721,1.5756,1.5814,1.5786,1.5845,1.5842,1.5847,1.5881,1.5844,1.5876,1.5848,1.5878,1.5864,1.5918,1.5926,1.592,1.5915,1.5923,1.5923,1.5931,1.5923,1.5905,1.5904,1.5904,1.5903,0,1.5832,1.5815,1.5873,1.5869,1.587,1.5913,1.591,1.5942,1.5932,1.5975,1.5983,1.5969,1.6002,1.5984,1.6019,1.6009,1.6079,1.6066,1.6076,1.6071,1.6124,1.6118,1.6301,1.6323,1.6158,1.616,1.6161,0,1.5915,1.5955,1.5956,1.5974,1.5979,1.601,1.6027,1.6001,1.602,1.6033,1.6063,1.6093,1.6115,1.617,1.6163,1.6189,1.6174,1.6236,1.6178,1.6183,1.6173,1.617,1.6173,1.6248,1.625,1.6251,1.6253,0,1.6064,1.6054,1.6078,1.61,1.6121,1.6137,1.615,1.6168,1.6142,1.6166,1.6198,1.6215,1.625,1.6279,1.6302,1.6304,1.6274,1.6271,1.6284,1.6291,1.6294,1.6291,1.6106,1.6267,1.6265,1.6264,1.6264,1.6263,1.6175,1.6207,1.6212,1.624,1.6247,1.626,1.6289,1.6283,1.6309,1.6334,1.6318,1.6356,1.6364,1.639,1.6397,1.6426,1.6401,1.6421,1.6426,1.643,1.6436,1.6291,1.6431,1.643,1.643,1.643,1.6429,0,1.632,1.632,1.6347,1.6366,1.6388,1.6357,1.637,1.6391,1.6425,1.6434,1.6456,1.6493,1.6521,1.6516,1.6541,1.6566,1.6553,1.6573,1.657,1.6571,1.6458,1.6443,1.6584,1.6584,1.6584,1.6584,1.6583,1.6583,1.6398,1.645,1.644,1.6495,1.6496,1.6532,1.6542,1.6553,1.656,1.6603,1.6625,1.6621,1.6624,1.665,1.6674,1.6672,1.6682,1.6708,1.67,1.6595,1.6579,1.6565,1.655,1.6711,1.6711,1.681,1.6811,1.6812]},{"header":{"parameterUnit":"m.s-1","parameterCategory":1,"la1":30.2991,"la2":30.254,"lo1":-89.0895,"lo2":-89.0444,"dy":0.0017,"dx":0.0017,"nx":28,"ny":28,"refTime":"2023-09-26T21:00:00:Z","depth":0,"parameterNumber":3,"parameterNumberName":"V-component_of_WINDS"},"data":[0,0,0,0,0,0,0,0,0,0,0,0,0,0,0,0,0,0,0,0,0,0,0,0,0,0,0,0,0,0,0,0,0,0,0,0,0,0,0,0,0,0,0,0,0,0,0,0,0,0,0,0,0,0,0,0,0,0,2.192,2.1923,0,2.2207,2.2211,2.2214,2.2272,2.227,2.2268,2.2265,2.2558,2.2567,2.2577,0,0,0,0,0,0,0,0,0,0,0,0,0,2.1413,2.1422,2.1919,2.1923,2.1927,2.2207,2.2211,2.2215,2.2272,2.227,2.2267,2.2264,2.2554,2.2566,2.2578,0,0,0,0,0,0,0,0,0,0,0,0,0,2.166,2.1425,2.1919,2.1989,2.1998,2.2206,2.2211,2.2216,2.2273,2.227,2.2266,2.2263,2.2551,2.2565,2.2579,2.2737,0,0,2.2624,2.2631,0,0,0,0,0,0,0,0,2.1646,2.1679,2.1975,2.1985,2.1995,2.22,2.214,2.239,2.2274,2.2169,2.2265,2.2262,2.2441,2.2465,2.2526,2.275,2.2763,2.2626,2.2635,2.2641,2.2645,0,0,0,0,0,0,0,2.1629,2.1667,2.2033,2.1979,2.1992,2.2004,2.2036,2.2187,2.232,2.2177,2.2182,2.2216,2.2446,2.2512,2.2533,2.2767,2.2625,2.2638,2.2648,2.2653,2.3128,2.3132,0,0,0,0,0,0,2.16,2.1652,2.2024,2.2042,2.1809,2.2016,2.2051,2.2138,2.2318,2.2343,2.2218,2.2217,2.2488,2.2516,2.2544,2.2737,2.2641,2.2655,2.2663,2.3125,2.3129,2.3133,0,0,0,0,0,0,2.1589,2.1633,2.2012,2.1848,2.1898,2.2028,2.2125,2.2145,2.2211,2.2349,2.2373,2.2261,2.2487,2.2523,2.2687,2.2748,2.2661,2.2675,2.312,2.3126,2.3131,2.3125,0,0,0,0,0,0,2.1574,2.1628,2.1691,2.1849,2.1906,2.2153,2.2129,2.2153,2.2237,2.2238,2.2396,2.2419,2.2487,2.2665,2.2702,2.2766,2.2686,2.3115,2.3123,2.313,2.312,2.313,2.3138,0,0,0,0,0,2.1556,2.1679,2.1694,2.1739,2.1988,2.2157,2.2189,2.2266,2.2241,2.2304,2.2392,2.2414,2.2734,2.2681,2.2723,2.2793,2.3112,2.3121,2.3129,2.3117,2.3128,2.3138,0,0,0,0,0,0,2.1525,2.1701,2.172,2.1898,2.2012,2.2166,2.2249,2.2276,2.2399,2.2395,2.2483,2.2518,2.2676,2.2751,2.2688,2.2952,2.2922,2.2939,2.2898,2.291,2.2918,2.2897,2.2699,0,0,0,0,0,2.1539,2.1663,2.1809,2.1952,2.2008,2.2118,2.2194,2.2243,2.2364,2.2412,2.2513,2.2628,2.2754,2.2836,2.296,2.313,2.3164,2.3199,2.3207,2.3214,2.3228,2.3319,2.3335,2.3161,2.3161,2.3161,0,0,2.1569,2.168,2.1754,2.1948,2.2042,2.2166,2.2158,2.2291,2.2383,2.2432,2.2593,2.267,2.2804,2.297,2.3049,2.3038,2.3283,2.3225,2.3229,2.324,2.3329,2.3346,2.336,2.3167,2.3166,2.3165,0,0,2.1688,2.1785,2.1913,2.2006,2.2148,2.2219,2.2249,2.2399,2.2452,2.2614,2.2652,2.2761,2.2978,2.3071,2.3147,2.3293,2.3316,2.333,2.3376,2.3464,2.3478,2.349,2.354,2.3557,2.3344,2.3344,2.3344,0,2.1707,2.1897,2.1975,2.2105,2.2188,2.2237,2.2365,2.2451,2.2626,2.268,2.2665,2.2935,2.3029,2.3216,2.3251,2.3311,2.3346,2.3314,2.3469,2.3483,2.3496,2.3544,2.3562,2.3345,2.3344,2.3344,2.3344,0,2.1913,2.2043,2.2129,2.2295,2.2387,2.2516,2.261,2.2694,2.2732,2.2804,2.2966,2.3079,2.3225,2.3273,2.3313,2.3464,2.3452,2.3452,2.3424,2.3512,2.3558,2.3577,2.3346,2.3345,2.3345,2.3345,0,0,2.2024,2.2228,2.2258,2.2332,2.2489,2.2591,2.2718,2.2861,2.2929,2.3046,2.3154,2.3333,2.3332,2.3417,2.3467,2.3544,2.3648,2.3534,2.3538,2.355,2.3818,2.3817,2.3837,2.3664,2.3668,2.3671,2.3806,0,2.216,2.2393,2.2463,2.2657,2.2776,2.2821,2.2932,2.3038,2.3107,2.3216,2.3291,2.3416,2.3407,2.3458,2.3536,2.3619,2.3703,2.361,2.3762,2.3767,2.3728,2.3862,2.3863,2.3985,2.3825,2.3828,2.383,0,2.2352,2.2471,2.2676,2.2813,2.2865,2.2964,2.3098,2.3202,2.3321,2.3366,2.3458,2.35,2.3631,2.3594,2.3774,2.3709,2.3775,2.3824,2.383,2.3848,2.3804,2.3882,2.4027,2.4044,2.386,2.3858,2.3856,0,2.241,2.2621,2.277,2.2832,2.2997,2.3064,2.3135,2.3251,2.3331,2.3446,2.3498,2.3627,2.3698,2.3795,2.3869,2.3835,2.4041,2.4011,2.4079,2.4077,2.4122,2.4118,2.4278,2.4165,2.4164,2.4164,2.4163,0,2.2555,2.2678,2.2798,2.289,2.3027,2.3105,2.3238,2.3311,2.3413,2.3517,2.3563,2.3659,2.3751,2.3858,2.3916,2.4055,2.4087,2.4124,2.4138,2.412,2.4115,2.4165,2.4158,2.4169,2.4168,2.4167,2.4166,0,2.2645,2.273,2.2895,2.3035,2.3073,2.3168,2.3287,2.3375,2.3443,2.3574,2.3609,2.3716,2.3844,2.3927,2.4091,2.4129,2.428,2.4292,2.424,2.4246,2.4309,2.4302,2.4507,2.4537,2.4403,2.4404,2.4405,0,2.2732,2.2827,2.2976,2.3049,2.3121,2.3238,2.3319,2.3397,2.3478,2.3618,2.3689,2.3819,2.3929,2.413,2.4221,2.4344,2.4359,2.4422,2.4378,2.4355,2.4358,2.4351,2.436,2.443,2.4431,2.4432,2.4432,0,2.2876,2.2912,2.3028,2.3156,2.325,2.3355,2.3459,2.3515,2.3611,2.3699,2.383,2.3915,2.4079,2.4207,2.4338,2.4408,2.4435,2.4445,2.4467,2.445,2.4415,2.4433,2.4258,2.444,2.444,2.4439,2.4439,2.4438,2.2967,2.3052,2.3169,2.3294,2.338,2.3475,2.3564,2.3642,2.3753,2.3894,2.3932,2.4068,2.4179,2.4358,2.443,2.4535,2.4528,2.456,2.4568,2.4575,2.4575,2.4397,2.4559,2.4559,2.4559,2.4559,2.4559,0,2.3113,2.3189,2.3303,2.3446,2.3543,2.3559,2.3674,2.3753,2.3873,2.3974,2.408,2.4227,2.435,2.4448,2.4574,2.4639,2.4654,2.4669,2.4665,2.468,2.4576,2.4543,2.4654,2.4654,2.4654,2.4654,2.4654,2.4654,2.32,2.3344,2.3393,2.3577,2.3653,2.3787,2.385,2.3936,2.4018,2.4181,2.4283,2.4346,2.4445,2.4577,2.4689,2.4714,2.4757,2.477,2.4797,2.4698,2.4688,2.4678,2.4648,2.4779,2.4779,2.4893,2.4894,2.4894]}]]